Printer-friendly version
Follow the MPC on Twitter Follow the MPC on Facebook The MPC blog
Minor Planet Center

MPEC 2004-V65 : 2004 VG64

The following Minor Planet Electronic Circular may be linked-to from your own Web pages, but must not otherwise be redistributed electronically.

A form allowing access to any MPEC is at the bottom of this page.


Read MPEC 2004-V64 Read MPEC 2004-V66


M.P.E.C. 2004-V65                                Issued 2004 Nov. 13, 21:16 UT

     The Minor Planet Electronic Circulars contain information on unusual
         minor planets and routine data on comets.  They are published
   on behalf of Commission 20 of the International Astronomical Union by the
          Minor Planet Center, Smithsonian Astrophysical Observatory,
                          Cambridge, MA 02138, U.S.A.

                  Supported in part by the Brinson Foundation
             Prepared using the Tamkin Foundation Computer Network

                              MPC@CFA.HARVARD.EDU
          URL http://cfa-www.harvard.edu/iau/mpc.html  ISSN 1523-6714

                                   2004 VG64

Observations:
     K04V64G* C2004 11 13.11435 21 32 54.91 -15 50 33.6          18.3 R EV065703
     K04V64G  C2004 11 13.12103 21 32 58.59 -15 50 42.1          18.0 R EV065703
     K04V64G  C2004 11 13.12769 21 33 02.23 -15 50 49.8          17.5 R EV065703
     K04V64G  C2004 11 13.13435 21 33 05.85 -15 50 57.1          18.7 R EV065703
     K04V64G  C2004 11 13.18047 21 33 31.01 -15 51 53.1          18.2 R EV065703
     K04V64G  C2004 11 13.18100 21 33 31.28 -15 51 53.3          18.7 R EV065703
     K04V64G  C2004 11 13.18153 21 33 31.59 -15 51 53.8          18.1 R EV065703
     K04V64G  C2004 11 13.18205 21 33 31.94 -15 51 55.3          18.5 R EV065703
     K04V64G  C2004 11 13.18285 21 33 32.33 -15 51 56.5          18.6 R EV065703
     K04V64G  C2004 11 13.18338 21 33 32.58 -15 51 55.8          18.1 R EV065703
     K04V64G  C2004 11 13.18390 21 33 32.84 -15 51 57.0          18.4 R EV065703
     K04V64G  C2004 11 13.18443 21 33 33.14 -15 51 57.2          18.5 R EV065703
     K04V64G 1C2004 11 13.43158 21 35 48.77 -15 56 29.4          18.9 R EV065413
     K04V64G 1C2004 11 13.43616 21 35 51.24 -15 56 34.7          18.7 R EV065413
     K04V64G 1C2004 11 13.52406 21 36 38.47 -15 58 14.1          19.0 R EV065413
     K04V64G 1C2004 11 13.52826 21 36 40.72 -15 58 18.9          18.9 R EV065413
     K04V64G bC2004 11 13.74927 21 38 40.87 -16 02 58.5          18.5 R EV065J95
     K04V64G bC2004 11 13.76242 21 38 47.81 -16 03 13.7          18.2 R EV065J95
     K04V64G bC2004 11 13.76996 21 38 51.70 -16 03 21.1          19.0 R EV065J95

Observer details:
413 Siding Spring.  Observer R. H. McNaught.  1.0-m f/8 reflector + CCD.
703 Catalina Sky Survey.  Observer E. J. Christensen.  Measurers E. C. Beshore,
    C. M. Casey, E. J. Christensen, G. J. Garradd, R. E. Hill, S. M. Larson,
    R. H. McNaught.  0.68-m Schmidt + CCD.
J95 Great Shefford.  Observer P. Birtwhistle.  0.30-m f/6.3 Schmidt-Cassegrain
    + CCD.

Orbital elements:
2004 VG64                                                            PHA 0.048D
Epoch 2004 Nov. 11.0 TT = JDT 2453320.5                 MPC
M  58.21832              (2000.0)            P               Q
n   1.03171292     Peri.   43.44932     -0.37068976     +0.88247722
a   0.9699815      Node   208.83583     -0.92752446     -0.33569815
e   0.6633155      Incl.   36.89086     +0.04782752     +0.32945518
P   0.96           H   18.3           G   0.15
From 19 observations 2004 Nov. 13-13.

Ephemeris:
2004 VG64                a,e,i = 0.97, 0.66, 37                  q = 0.3266
Date    TT    R. A. (2000) Decl.     Delta      r     Elong.  Phase     V
2004 11 11    21 12.20   -15 00.2    0.365    1.037    87.1    72.4    18.7
2004 11 21    22 31.78   -17 20.9    0.499    1.139    94.2    59.9    19.2
2004 12 01    23 19.46   -17 24.8    0.657    1.228    94.6    53.2    19.8
2004 12 11    23 51.98   -16 39.4    0.823    1.307    92.1    48.9    20.3
2004 12 21    00 17.12   -15 32.0    0.991    1.375    88.3    45.7    20.7
2004 12 31    00 38.40   -14 13.4    1.157    1.434    83.7    43.0    21.1
2005 01 10    00 57.61   -12 48.5    1.317    1.484    78.9    40.6    21.4
2005 01 20    01 15.72   -11 20.0    1.471    1.525    73.9    38.3    21.6
2005 01 30    01 33.26   -09 50.4    1.615    1.558    68.8    36.1    21.8
2005 02 09    01 50.57   -08 20.9    1.749    1.584    63.8    34.0    21.9

Timothy B. Spahr             (C) Copyright 2004 MPC           M.P.E.C. 2004-V65

Read MPEC 2004-V64 Read MPEC 2004-V66


MPEC number:

Enter an MPEC number in one of the following forms:

  • 1997-B01 (the full form)
  • J97B01 (the packed version of the full form)
  • B01 (the abbreviated form)

Valid HTML 4.01!